| time (UTC) | temp F | wind direction | speed MPH | gust MPH | rain 1hr in | rain 24hr in | rain mn in | humidity % | barometer mb |
| 20260505035848 | 68 | 80 | 0.0 | 1.0 | 0.00 | 0.00 | 0.00 | 76 | 1018.2 |
| 20260505035324 | 68 | 80 | 0.0 | 2.0 | 0.00 | 0.00 | 0.00 | 75 | 1018.1 |
| 20260505034825 | 68 | 81 | 0.0 | 2.0 | 0.00 | 0.00 | 0.00 | 75 | 1018.2 |
| 20260505034327 | 68 | 94 | 0.0 | 1.0 | 0.00 | 0.00 | 0.00 | 75 | 1018.3 |
| 20260505033839 | 68 | 78 | 0.0 | 3.0 | 0.00 | 0.00 | 0.00 | 75 | 1018.3 |
| 20260505033340 | 69 | 94 | 1.0 | 3.0 | 0.00 | 0.00 | 0.00 | 75 | 1018.3 |
| 20260505032842 | 69 | 66 | 1.0 | 3.0 | 0.00 | 0.00 | 0.00 | 74 | 1018.3 |
| 20260505032342 | 69 | 76 | 0.0 | 3.0 | 0.00 | 0.00 | 0.00 | 74 | 1018.4 |
| 20260505031842 | 69 | 83 | 0.0 | 2.0 | 0.00 | 0.00 | 0.00 | 74 | 1018.5 |
| 20260505031324 | 69 | 71 | 0.0 | 1.0 | 0.00 | 0.00 | 0.00 | 74 | 1018.6 |
| 20260505030849 | 69 | 71 | 0.0 | 4.0 | 0.00 | 0.00 | 0.00 | 74 | 1018.6 |
| 20260505030350 | 69 | 71 | 1.0 | 4.0 | 0.00 | 0.00 | 0.00 | 74 | 1018.6 |
| 20260505025852 | 69 | 69 | 0.0 | 2.0 | 0.00 | 0.00 | 0.00 | 73 | 1018.6 |
| 20260505025351 | 69 | 69 | 1.0 | 2.0 | 0.00 | 0.00 | 0.00 | 73 | 1018.5 |
| 20260505024831 | 69 | 103 | 0.0 | 2.0 | 0.00 | 0.00 | 0.00 | 73 | 1018.4 |
| 20260505024333 | 70 | 76 | 1.0 | 2.0 | 0.00 | 0.00 | 0.00 | 72 | 1018.5 |
| 20260505023834 | 70 | 92 | 0.0 | 4.0 | 0.00 | 0.00 | 0.00 | 72 | 1018.6 |
| 20260505023336 | 70 | 80 | 0.0 | 4.0 | 0.00 | 0.00 | 0.00 | 72 | 1018.5 |
| 20260505022835 | 70 | 86 | 1.0 | 4.0 | 0.00 | 0.00 | 0.00 | 72 | 1018.6 |
| 20260505022339 | 70 | 92 | 1.0 | 2.0 | 0.00 | 0.00 | 0.00 | 71 | 1018.5 |
| 20260505021841 | 70 | 96 | 0.0 | 5.0 | 0.00 | 0.00 | 0.00 | 71 | 1018.5 |
| 20260505021343 | 70 | 76 | 1.0 | 5.0 | 0.00 | 0.00 | 0.00 | 71 | 1018.5 |
| 20260505020826 | 70 | 71 | 1.0 | 5.0 | 0.00 | 0.00 | 0.00 | 70 | 1018.4 |
| 20260505020351 | 70 | 82 | 1.0 | 4.0 | 0.00 | 0.00 | 0.00 | 70 | 1018.4 |
| 20260505015828 | 71 | 67 | 1.0 | 4.0 | 0.00 | 0.00 | 0.00 | 70 | 1018.3 |
| 20260505015327 | 71 | 88 | 1.0 | 5.0 | 0.00 | 0.00 | 0.00 | 70 | 1018.1 |
| 20260505014829 | 71 | 70 | 2.0 | 5.0 | 0.00 | 0.00 | 0.00 | 69 | 1018.0 |
| 20260505014332 | 71 | 79 | 1.0 | 4.0 | 0.00 | 0.00 | 0.00 | 69 | 1018.0 |
| 20260505013902 | 71 | 80 | 1.0 | 5.0 | 0.00 | 0.00 | 0.00 | 69 | 1018.0 |
| 20260505013345 | 71 | 103 | 1.0 | 4.0 | 0.00 | 0.00 | 0.00 | 68 | 1018.0 |
| 20260505012826 | 71 | 77 | 1.0 | 4.0 | 0.00 | 0.00 | 0.00 | 68 | 1017.9 |
| 20260505012357 | 71 | 85 | 1.0 | 4.0 | 0.00 | 0.00 | 0.00 | 68 | 1017.8 |
| 20260505011907 | 72 | 75 | 2.0 | 6.0 | 0.00 | 0.00 | 0.00 | 67 | 1017.7 |
| 20260505011345 | 72 | 86 | 2.0 | 6.0 | 0.00 | 0.00 | 0.00 | 67 | 1017.6 |
| 20260505010826 | 72 | 65 | 3.0 | 6.0 | 0.00 | 0.00 | 0.00 | 67 | 1017.6 |
| 20260505010325 | 72 | 115 | 3.0 | 8.0 | 0.00 | 0.00 | 0.00 | 66 | 1017.6 |
| 20260505005852 | 72 | 71 | 3.0 | 9.0 | 0.00 | 0.00 | 0.00 | 66 | 1017.6 |
| 20260505005330 | 72 | 75 | 3.0 | 9.0 | 0.00 | 0.00 | 0.00 | 66 | 1017.6 |
| 20260505004829 | 72 | 88 | 2.0 | 8.0 | 0.00 | 0.00 | 0.00 | 66 | 1017.8 |
| 20260505004400 | 72 | 76 | 3.0 | 8.0 | 0.00 | 0.00 | 0.00 | 66 | 1017.7 |
| 20260505003842 | 73 | 82 | 3.0 | 9.0 | 0.00 | 0.00 | 0.00 | 65 | 1017.6 |
| 20260505003341 | 73 | 77 | 3.0 | 8.0 | 0.00 | 0.00 | 0.00 | 65 | 1017.6 |
| 20260505002845 | 73 | 105 | 3.0 | 9.0 | 0.00 | 0.00 | 0.00 | 65 | 1017.5 |
| 20260505002343 | 73 | 67 | 3.0 | 9.0 | 0.00 | 0.00 | 0.00 | 64 | 1017.4 |
| 20260505001846 | 73 | 66 | 4.0 | 8.0 | 0.00 | 0.00 | 0.00 | 64 | 1017.3 |
| 20260505001329 | 73 | 97 | 2.0 | 6.0 | 0.00 | 0.00 | 0.00 | 64 | 1017.3 |
| 20260505000832 | 74 | 73 | 3.0 | 8.0 | 0.00 | 0.00 | 0.00 | 64 | 1017.1 |
| 20260505000335 | 74 | 113 | 3.0 | 8.0 | 0.00 | 0.00 | 0.00 | 63 | 1017.1 |
| 20260504235835 | 74 | 105 | 3.0 | 8.0 | 0.00 | 0.00 | 0.00 | 63 | 1017.2 |
| 20260504235333 | 74 | 128 | 2.0 | 8.0 | 0.00 | 0.00 | 0.00 | 62 | 1017.2 |
| 20260504234834 | 74 | 79 | 3.0 | 8.0 | 0.00 | 0.00 | 0.00 | 62 | 1017.0 |
| 20260504234334 | 74 | 67 | 2.0 | 13.0 | 0.00 | 0.00 | 0.00 | 62 | 1016.9 |
| 20260504233901 | 75 | 71 | 4.0 | 10.0 | 0.00 | 0.00 | 0.00 | 61 | 1016.8 |
| 20260504233341 | 75 | 65 | 5.0 | 10.0 | 0.00 | 0.00 | 0.00 | 61 | 1016.8 |
| 20260504232840 | 75 | 79 | 2.0 | 11.0 | 0.00 | 0.00 | 0.00 | 61 | 1016.8 |
| 20260504232336 | 75 | 121 | 3.0 | 12.0 | 0.00 | 0.00 | 0.00 | 60 | 1016.9 |
| 20260504231843 | 76 | 59 | 6.0 | 12.0 | 0.00 | 0.00 | 0.00 | 60 | 1016.9 |
| 20260504231342 | 76 | 83 | 3.0 | 9.0 | 0.00 | 0.00 | 0.00 | 60 | 1016.9 |
| 20260504230845 | 76 | 76 | 5.0 | 10.0 | 0.00 | 0.00 | 0.00 | 59 | 1016.8 |
| 20260504230346 | 76 | 137 | 4.0 | 11.0 | 0.00 | 0.00 | 0.00 | 58 | 1016.8 |
| 20260504225849 | 77 | 68 | 3.0 | 8.0 | 0.00 | 0.00 | 0.00 | 58 | 1016.8 |
| 20260504225330 | 77 | 107 | 3.0 | 14.0 | 0.00 | 0.00 | 0.00 | 58 | 1016.7 |
| 20260504224830 | 77 | 73 | 5.0 | 11.0 | 0.00 | 0.00 | 0.00 | 57 | 1016.8 |
| 20260504224331 | 77 | 94 | 3.0 | 7.0 | 0.00 | 0.00 | 0.00 | 57 | 1016.8 |
| 20260504223832 | 77 | 123 | 2.0 | 9.0 | 0.00 | 0.00 | 0.00 | 57 | 1016.8 |
| 20260504223333 | 77 | 125 | 4.0 | 11.0 | 0.00 | 0.00 | 0.00 | 56 | 1016.8 |
| 20260504222834 | 78 | 71 | 4.0 | 13.0 | 0.00 | 0.00 | 0.00 | 56 | 1016.7 |
| 20260504222332 | 78 | 83 | 5.0 | 13.0 | 0.00 | 0.00 | 0.00 | 55 | 1016.7 |
| 20260504221835 | 79 | 109 | 3.0 | 8.0 | 0.00 | 0.00 | 0.00 | 55 | 1016.8 |
| 20260504221338 | 79 | 79 | 2.0 | 13.0 | 0.00 | 0.00 | 0.00 | 55 | 1016.6 |
| 20260504220841 | 79 | 97 | 4.0 | 13.0 | 0.00 | 0.00 | 0.00 | 55 | 1016.7 |
| 20260504220341 | 78 | 76 | 7.0 | 12.0 | 0.00 | 0.00 | 0.00 | 54 | 1016.7 |
| 20260504215908 | 79 | 95 | 6.0 | 9.0 | 0.00 | 0.00 | 0.00 | 54 | 1016.7 |
| 20260504215342 | 80 | 113 | 5.0 | 12.0 | 0.00 | 0.00 | 0.00 | 52 | 1016.6 |
| 20260504214840 | 80 | 69 | 6.0 | 12.0 | 0.00 | 0.00 | 0.00 | 53 | 1016.7 |
| 20260504214409 | 80 | 46 | 5.0 | 11.0 | 0.00 | 0.00 | 0.00 | 52 | 1016.7 |
| 20260504213849 | 80 | 99 | 6.0 | 11.0 | 0.00 | 0.00 | 0.00 | 53 | 1016.6 |
| 20260504213351 | 80 | 89 | 5.0 | 11.0 | 0.00 | 0.00 | 0.00 | 52 | 1016.7 |
| 20260504212849 | 80 | 137 | 5.0 | 13.0 | 0.00 | 0.00 | 0.00 | 52 | 1016.7 |
| 20260504212350 | 79 | 118 | 8.0 | 13.0 | 0.00 | 0.00 | 0.00 | 53 | 1016.7 |
| 20260504211829 | 80 | 113 | 7.0 | 12.0 | 0.00 | 0.00 | 0.00 | 51 | 1016.6 |
| 20260504211331 | 80 | 115 | 5.0 | 10.0 | 0.00 | 0.00 | 0.00 | 51 | 1016.6 |
| 20260504210830 | 80 | 136 | 3.0 | 10.0 | 0.00 | 0.00 | 0.00 | 53 | 1016.8 |
| 20260504210332 | 79 | 130 | 3.0 | 10.0 | 0.00 | 0.00 | 0.00 | 53 | 1016.8 |
| 20260504205831 | 79 | 119 | 5.0 | 10.0 | 0.00 | 0.00 | 0.00 | 53 | 1016.7 |
| 20260504205334 | 79 | 77 | 3.0 | 13.0 | 0.00 | 0.00 | 0.00 | 52 | 1016.7 |
| 20260504204835 | 80 | 113 | 5.0 | 13.0 | 0.00 | 0.00 | 0.00 | 51 | 1016.8 |
| 20260504204336 | 80 | 100 | 4.0 | 12.0 | 0.00 | 0.00 | 0.00 | 51 | 1016.8 |
| 20260504203836 | 81 | 126 | 3.0 | 10.0 | 0.00 | 0.00 | 0.00 | 52 | 1016.7 |
| 20260504203338 | 81 | 122 | 6.0 | 10.0 | 0.00 | 0.00 | 0.00 | 50 | 1016.7 |
| 20260504202904 | 82 | 111 | 4.0 | 10.0 | 0.00 | 0.00 | 0.00 | 50 | 1016.7 |
| 20260504202343 | 82 | 91 | 4.0 | 11.0 | 0.00 | 0.00 | 0.00 | 51 | 1016.8 |
| 20260504201844 | 82 | 111 | 7.0 | 11.0 | 0.00 | 0.00 | 0.00 | 49 | 1016.8 |
| 20260504201330 | 82 | 105 | 6.0 | 14.0 | 0.00 | 0.00 | 0.00 | 49 | 1016.9 |
| 20260504200832 | 82 | 109 | 5.0 | 14.0 | 0.00 | 0.00 | 0.00 | 50 | 1016.9 |
| 20260504200333 | 81 | 123 | 2.0 | 8.0 | 0.00 | 0.00 | 0.00 | 51 | 1017.0 |
| 20260504195833 | 81 | 80 | 4.0 | 12.0 | 0.00 | 0.00 | 0.00 | 51 | 1017.1 |
| 20260504195336 | 81 | 111 | 5.0 | 11.0 | 0.00 | 0.00 | 0.00 | 50 | 1017.2 |
| 20260504194837 | 81 | 71 | 5.0 | 10.0 | 0.00 | 0.00 | 0.00 | 50 | 1017.2 |
| 20260504194336 | 83 | 112 | 4.0 | 11.0 | 0.00 | 0.00 | 0.00 | 48 | 1017.3 |
| 20260504193838 | 82 | 127 | 3.0 | 11.0 | 0.00 | 0.00 | 0.00 | 50 | 1017.2 |
| 20260504193402 | 82 | 91 | 5.0 | 12.0 | 0.00 | 0.00 | 0.00 | 49 | 1017.3 |
| 20260504192844 | 82 | 129 | 5.0 | 12.0 | 0.00 | 0.00 | 0.00 | 49 | 1017.4 |
| 20260504192345 | 82 | 77 | 6.0 | 16.0 | 0.00 | 0.00 | 0.00 | 48 | 1017.4 |
| 20260504191848 | 83 | 99 | 5.0 | 16.0 | 0.00 | 0.00 | 0.00 | 48 | 1017.4 |
| 20260504191348 | 83 | 22 | 2.0 | 12.0 | 0.00 | 0.00 | 0.00 | 49 | 1017.4 |
| 20260504190850 | 83 | 128 | 7.0 | 12.0 | 0.00 | 0.00 | 0.00 | 47 | 1017.7 |
| 20260504190400 | 83 | 73 | 5.0 | 14.0 | 0.00 | 0.00 | 0.00 | 49 | 1017.7 |
| 20260504185843 | 83 | 78 | 5.0 | 12.0 | 0.00 | 0.00 | 0.00 | 48 | 1017.9 |
| 20260504185341 | 83 | 138 | 6.0 | 12.0 | 0.00 | 0.00 | 0.00 | 49 | 1018.0 |
| 20260504184823 | 82 | 116 | 5.0 | 12.0 | 0.00 | 0.00 | 0.00 | 48 | 1018.0 |
| 20260504184325 | 82 | 126 | 6.0 | 10.0 | 0.00 | 0.00 | 0.00 | 48 | 1018.0 |
| 20260504183828 | 81 | 101 | 4.0 | 12.0 | 0.00 | 0.00 | 0.00 | 49 | 1018.1 |
| 20260504183327 | 81 | 129 | 2.0 | 10.0 | 0.00 | 0.00 | 0.00 | 48 | 1018.1 |
| 20260504182834 | 82 | 66 | 5.0 | 10.0 | 0.00 | 0.00 | 0.00 | 47 | 1018.1 |
| 20260504182337 | 82 | 77 | 5.0 | 10.0 | 0.00 | 0.00 | 0.00 | 48 | 1018.3 |
| 20260504181840 | 81 | 73 | 3.0 | 10.0 | 0.00 | 0.00 | 0.00 | 47 | 1018.3 |
| 20260504181343 | 82 | 88 | 5.0 | 10.0 | 0.00 | 0.00 | 0.00 | 48 | 1018.3 |
| 20260504180845 | 81 | 124 | 3.0 | 9.0 | 0.00 | 0.00 | 0.00 | 48 | 1018.3 |
| 20260504180348 | 82 | 120 | 5.0 | 9.0 | 0.00 | 0.00 | 0.00 | 47 | 1018.4 |
| 20260504175850 | 82 | 76 | 2.0 | 10.0 | 0.00 | 0.00 | 0.00 | 48 | 1018.4 |
| 20260504175347 | 83 | 66 | 1.0 | 10.0 | 0.00 | 0.00 | 0.00 | 45 | 1018.3 |
| 20260504174827 | 85 | 93 | 3.0 | 10.0 | 0.00 | 0.00 | 0.00 | 44 | 1018.4 |
| 20260504174326 | 84 | 142 | 2.0 | 11.0 | 0.00 | 0.00 | 0.00 | 48 | 1018.4 |
| 20260504173827 | 83 | 103 | 3.0 | 11.0 | 0.00 | 0.00 | 0.00 | 47 | 1018.5 |
| 20260504173324 | 83 | 89 | 3.0 | 8.0 | 0.00 | 0.00 | 0.00 | 47 | 1018.6 |
| 20260504172831 | 83 | 46 | 3.0 | 8.0 | 0.00 | 0.00 | 0.00 | 48 | 1018.6 |
| 20260504172334 | 82 | 48 | 2.0 | 8.0 | 0.00 | 0.00 | 0.00 | 50 | 1018.5 |
| 20260504171836 | 81 | 127 | 3.0 | 13.0 | 0.00 | 0.00 | 0.00 | 48 | 1018.6 |
| 20260504171335 | 83 | 78 | 3.0 | 8.0 | 0.00 | 0.00 | 0.00 | 46 | 1018.7 |
| 20260504170834 | 82 | 70 | 2.0 | 8.0 | 0.00 | 0.00 | 0.00 | 48 | 1018.7 |
| 20260504170334 | 81 | 44 | 4.0 | 8.0 | 0.00 | 0.00 | 0.00 | 47 | 1018.7 |
| 20260504160339 | 80 | 70 | 2.0 | 13.0 | 0.00 | 0.00 | 0.00 | 46 | 1019.2 |
| 20260504150836 | 78 | 65 | 3.0 | 9.0 | 0.00 | 0.00 | 0.00 | 49 | 1019.7 |
| 20260504150406 | 77 | 61 | 2.0 | 8.0 | 0.00 | 0.00 | 0.00 | 50 | 1019.8 |
| 20260504140846 | 75 | 51 | 5.0 | 8.0 | 0.00 | 0.00 | 0.00 | 50 | 1019.6 |
| 20260504140347 | 75 | 64 | 0.0 | 9.0 | 0.00 | 0.00 | 0.00 | 55 | 1019.5 |
| 20260504130350 | 69 | 21 | 1.0 | 8.0 | 0.00 | 0.00 | 0.00 | 78 | 1019.3 |
| 20260504110337 | 58 | 15 | 0.0 | 0.0 | 0.00 | 0.00 | 0.00 | 88 | 1018.5 |
| 20260504100334 | 59 | 15 | 0.0 | 0.0 | 0.00 | 0.00 | 0.00 | 88 | 1018.0 |
| 20260504081838 | 61 | 15 | 0.0 | 1.0 | 0.00 | 0.00 | 0.00 | 86 | 1018.0 |
| 20260504081339 | 61 | 15 | 0.0 | 0.0 | 0.00 | 0.00 | 0.00 | 86 | 1018.1 |
| 20260504080838 | 61 | 15 | 0.0 | 0.0 | 0.00 | 0.00 | 0.00 | 86 | 1018.0 |
| 20260504080347 | 61 | 15 | 0.0 | 0.0 | 0.00 | 0.00 | 0.00 | 85 | 1018.1 |
| 20260504070334 | 63 | 15 | 0.0 | 0.0 | 0.00 | 0.00 | 0.00 | 83 | 1018.0 |
| 20260504050326 | 66 | 15 | 0.0 | 0.0 | 0.00 | 0.01 | 0.00 | 78 | 1019.2 |
| 20260504045824 | 66 | 15 | 0.0 | 0.0 | 0.00 | 0.02 | 0.00 | 78 | 1019.2 |
| 20260504045327 | 66 | 15 | 0.0 | 0.0 | 0.00 | 0.02 | 0.00 | 78 | 1019.3 |
| 20260504044827 | 66 | 15 | 0.0 | 0.0 | 0.00 | 0.02 | 0.00 | 78 | 1019.3 |
| 20260504044328 | 66 | 15 | 0.0 | 0.0 | 0.00 | 0.02 | 0.00 | 77 | 1019.3 |
| 20260504043900 | 66 | 15 | 0.0 | 0.0 | 0.00 | 0.02 | 0.00 | 77 | 1019.3 |
| 20260504043409 | 66 | 15 | 0.0 | 0.0 | 0.00 | 0.02 | 0.00 | 77 | 1019.3 |
| 20260504042851 | 66 | 15 | 0.0 | 0.0 | 0.00 | 0.02 | 0.00 | 77 | 1019.3 |
| 20260504042348 | 67 | 15 | 0.0 | 0.0 | 0.00 | 0.02 | 0.00 | 76 | 1019.3 |
| 20260504041849 | 67 | 15 | 0.0 | 0.0 | 0.00 | 0.02 | 0.00 | 76 | 1019.2 |
| 20260504041355 | 67 | 15 | 0.0 | 0.0 | 0.00 | 0.02 | 0.00 | 76 | 1019.3 |
| 20260504040835 | 67 | 15 | 0.0 | 0.0 | 0.00 | 0.02 | 0.00 | 76 | 1019.4 |
| 20260504040336 | 67 | 15 | 0.0 | 0.0 | 0.00 | 0.02 | 0.00 | 76 | 1019.5 |